Regional Weather Roundup
Issued by NWS

Home | Current Version | Previous Version | Text Only | Print | Product List | Glossary Off
Versions: 1 2 3 4 5 6 7 8 9 10 11 12 13 14 15 16 17 18 19 20 21 22 23 24 25 26 27 28 29 30 31 32 33 34 35 36 37 38 39 40 41 42 43 44 45 46 47 48 49 50

555
ASUS43 KFSD 141102
RWRSD

WEATHER ROUNDUP FOR SOUTH DAKOTA
NATIONAL WEATHER SERVICE SIOUX FALLS SD
500 AM CST SUN FEB 14 2016

NOTE: "FAIR" INDICATES FEW OR NO CLOUDS BELOW 12,000 FEET WITH NO
SIGNIFICANT WEATHER AND/OR OBSTRUCTIONS TO VISIBILITY.


SDZ001>005-009-010-012>017-141200-
NORTHWEST AND NORTH CENTRAL SOUTH DAKOTA

CITY           SKY/WX    TMP DP  RH WIND       PRES   REMARKS
BUFFALO          N/A     28  24  85 W13       29.73F WCI  17
FAITH            N/A     31  26  82 NW16      29.78F WCI  20
MOBRIDGE       CLOUDY    22  20  92 SE6       29.76S FOG     WCI  14
$$

SDZ012>016-024>037-041>051-057-063-072>074-141200-
SOUTHWEST AND SOUTH CENTRAL SOUTH DAKOTA

CITY           SKY/WX    TMP DP  RH WIND       PRES   REMARKS
RAPID CTY ARPT CLEAR     28  23  81 W7        29.85F WCI  21
PIERRE         LGT SNOW  24  23  96 S3        29.80R FOG
CUSTER         CLEAR     27  19  72 W14G24    29.85F WCI  16
ELLSWORTH AFB  CLEAR     32  26  76 W9        29.84F WCI  25
PHILIP         CLEAR     35  30  82 W15       29.84S WCI  25
PINE RIDGE     CLEAR     32  24  72 W13       29.91F WCI  22
WINNER         CLOUDY    39  32  76 NW20      29.80R
$$

SDZ004>011-016>023-039-040-141200-
NORTHEAST SOUTH DAKOTA

CITY           SKY/WX    TMP DP  RH WIND       PRES   REMARKS
ABERDEEN       LGT SNOW  16  11  80 S18       29.86R WCI   0
WATERTOWN      LGT SNOW  12   7  80 S17       29.85F WCI  -5
BROOKINGS      LGT SNOW  11   8  88 SE16      29.87F FOG     WCI  -6
SISSETON         N/A     13  10  88 S14       29.91F WCI  -2
$$

SDZ017-020-022-023-036>040-048>070-141200-
SOUTHEAST SOUTH DAKOTA

CITY           SKY/WX    TMP DP  RH WIND       PRES   REMARKS
SIOUX FALLS    LGT SNOW  14   9  80 SE13      29.89F WCI   0
HURON          LGT SNOW  15  11  83 S12       29.86F FOG     WCI   2
MITCHELL       CLOUDY    16  12  84 SE14      29.87R WCI   2
YANKTON        PTCLDY    16  12  86 SE13      29.86F WCI   2
$$

ABBREVIATIONS USED IN REMARKS
   TC - TEMPERATURE IN CELSIUS
  WCI - WIND CHILL INDEX
   HX - HEAT INDEX
  VSB - VISIBILITY





USA.gov is the U.S. government's official web portal to all federal, state and local government web resources and services.